Bangkok (Don Mueang), Thailand

1:41 PM +07 on February 25, 2018 (GMT +0700)
Bangkok International

Weather History for VTBD - March, 2013

Change the Weather History Date:

Wednesday, March 6, 2013

  Actual Average Record
Temperature  
Mean Temperature 85 °F -  
Max Temperature 95 °F 93 °F 98 °F (2001)
Min Temperature 75 °F 76 °F 66 °F (2005)
Cooling Degree Days 20    
Growing Degree Days 35 (Base 50)    
Moisture  
Dew Point 66 °F    
Average Humidity 55    
Maximum Humidity 74    
Minimum Humidity 29    
Precipitation  
Precipitation 0.00 in 0.04 in - ()
Sea Level Pressure  
Sea Level Pressure 29.93 in    
Wind  
Wind Speed 4 mph ()    
Max Wind Speed 9 mph    
Max Gust Speed -    
Visibility 5.3 miles    
Events      
Averages and records for this station are not official NWS values.
T = Trace of Precipitation, MM = Missing Value Source: Averaged Metar Reports

Daily Weather History Graph

Daily Weather History Graph

Search for Another Location

Airport or City:

Trip Planner

Search our weather history database for the weather conditions in past years. The results will help you decide how hot, cold, wet, or windy it might be!

Date:

Astronomy

Mar. 06, 2013 Rise Set
Actual Time 6:31 AM +07 6:26 PM +07
Civil Twilight 6:09 AM +07 6:48 PM +07
Nautical Twilight 5:45 AM +07 7:12 PM +07
Astronomical Twilight 5:20 AM +07 7:37 PM +07
Moon 1:30 AM +07 (3/6) 1:15 PM +07 (3/6)
Length of Visible Light 12h 38m
Length of Day
11h 55m
Waning Crescent, 35% of the Moon is Illuminated
Mar 6
Waning Crescent
Mar 12
New
Mar 20
First Quarter
Mar 27
Full
Apr 3
Last Quarter

Hourly Weather History & Observations

Time (+07) Temp. Heat Index Dew Point Humidity Pressure Visibility Wind Dir Wind Speed Gust Speed Precip Events Conditions
12:00 AM 80.6 °F 82.7 °F 66.2 °F 61% 29.95 in 5.6 mi NE 6.9 mph - N/A   Scattered Clouds
12:30 AM 78.8 °F - 68.0 °F 69% 29.95 in 5.6 mi NE 4.6 mph - N/A   Scattered Clouds
1:00 AM 78 °F - 67 °F 61% 29.96 in 5 mi East 2.3 mph - -   Mist
1:00 AM 78.8 °F - 66.2 °F 65% 29.95 in 5.0 mi East 2.3 mph - N/A   Scattered Clouds
1:30 AM 78.8 °F - 66.2 °F 65% 29.95 in 5.0 mi North 5.8 mph - N/A   Scattered Clouds
2:00 AM 77.0 °F - 66.2 °F 69% 29.92 in 5.0 mi North 2.3 mph - N/A   Scattered Clouds
2:30 AM 77.0 °F - 66.2 °F 69% 29.92 in 5.0 mi North 3.5 mph - N/A   Scattered Clouds
3:00 AM 77.0 °F - 68.0 °F 74% 29.92 in 5.0 mi ENE 2.3 mph - N/A   Scattered Clouds
3:30 AM 77.0 °F - 68.0 °F 74% 29.92 in 5.0 mi Calm Calm - N/A   Scattered Clouds
4:00 AM 77.0 °F - 68.0 °F 74% 29.92 in 5.0 mi Calm Calm - N/A   Scattered Clouds
4:30 AM 77.0 °F - 68.0 °F 74% 29.92 in 5.0 mi North 4.6 mph - N/A   Scattered Clouds
5:00 AM 75.2 °F - 66.2 °F 73% 29.92 in 5.0 mi NNW 2.3 mph - N/A   Mostly Cloudy
5:30 AM 75.2 °F - 66.2 °F 73% 29.92 in 5.0 mi North 2.3 mph - N/A   Mostly Cloudy
6:00 AM 75.2 °F - 66.2 °F 73% 29.95 in 5.0 mi NNW 3.5 mph - N/A   Mostly Cloudy
6:30 AM 75.2 °F - 66.2 °F 73% 29.95 in 4.3 mi NNW 4.6 mph - N/A   Mostly Cloudy
7:00 AM 76 °F - 66 °F 64% 29.98 in 4 mi NNW 3.5 mph - -   Mist
7:00 AM 77.0 °F - 66.2 °F 69% 29.98 in 4.3 mi NNW 3.5 mph - N/A   Mostly Cloudy
7:30 AM 77.0 °F - 66.2 °F 69% 29.98 in 5.0 mi NNW 4.6 mph - N/A   Mostly Cloudy
8:00 AM 77.0 °F - 66.2 °F 69% 29.98 in 5.0 mi NNE 3.5 mph - N/A   Mostly Cloudy
8:30 AM 78.8 °F - 66.2 °F 65% 29.98 in 5.6 mi NE 3.5 mph - N/A   Scattered Clouds
9:00 AM 80.6 °F 82.7 °F 66.2 °F 61% 30.01 in 5.6 mi NNE 2.3 mph - N/A   Scattered Clouds
9:30 AM 82.4 °F 84.6 °F 66.2 °F 58% 30.01 in 5.6 mi NNE 4.6 mph - N/A   Scattered Clouds
10:00 AM 84.2 °F 86.6 °F 66.2 °F 55% 30.01 in 5.6 mi ENE 2.3 mph - N/A   Scattered Clouds
10:30 AM 87.8 °F 90.4 °F 66.2 °F 49% 30.01 in 5.6 mi ENE 3.5 mph - N/A   Scattered Clouds
11:00 AM 87.8 °F 89.4 °F 64.4 °F 46% 30.01 in 5.6 mi Calm Calm - N/A   Scattered Clouds
11:30 AM 87.8 °F 90.4 °F 66.2 °F 49% 30.01 in 5.6 mi ENE 9.2 mph - N/A   Scattered Clouds
12:00 PM 91.4 °F 93.2 °F 64.4 °F 41% 29.98 in 5.6 mi ENE 5.8 mph - N/A   Scattered Clouds
12:30 PM 91.4 °F 93.2 °F 64.4 °F 41% 29.95 in 5.6 mi SSE 8.1 mph - N/A   Scattered Clouds
1:00 PM 91 °F - 63 °F 29% 29.94 in 6 mi East 8.1 mph - -   Haze
1:00 PM 91.4 °F 92.1 °F 62.6 °F 38% 29.92 in 5.6 mi East 8.1 mph - N/A   Scattered Clouds
1:30 PM 91.4 °F 93.2 °F 64.4 °F 41% 29.92 in 5.6 mi ENE 5.8 mph - N/A   Scattered Clouds
2:00 PM 93.2 °F 96.2 °F 66.2 °F 41% 29.89 in 6.2 mi NNW 4.6 mph - N/A   Scattered Clouds
2:30 PM 93.2 °F 96.2 °F 66.2 °F 41% 29.89 in 6.2 mi NE 3.5 mph - N/A   Scattered Clouds
3:00 PM 93.2 °F 94.1 °F 62.6 °F 36% 29.89 in 6.2 mi NE 6.9 mph - N/A   Scattered Clouds
3:30 PM 93.2 °F 96.2 °F 66.2 °F 41% 29.86 in 6.2 mi ENE 2.3 mph - N/A   Scattered Clouds
4:00 PM 95.0 °F 97.0 °F 64.4 °F 36% 29.86 in 6.2 mi ENE 6.9 mph - N/A   Scattered Clouds
4:30 PM 95.0 °F 96.0 °F 62.6 °F 34% 29.86 in 6.2 mi NE 5.8 mph - N/A   Scattered Clouds
5:00 PM 93.2 °F 94.9 °F 64.4 °F 38% 29.86 in 6.2 mi ENE 3.5 mph - N/A   Scattered Clouds
5:30 PM 93.2 °F 94.9 °F 64.4 °F 38% 29.86 in 6.2 mi NE 3.5 mph - N/A   Scattered Clouds
6:00 PM 91.4 °F 94.0 °F 66.2 °F 43% 29.86 in 6.2 mi ENE 6.9 mph - N/A   Scattered Clouds
6:30 PM 91.4 °F 94.0 °F 66.2 °F 43% 29.89 in 5.6 mi NE 5.8 mph - N/A   Scattered Clouds
7:00 PM 90 °F - 62 °F 29% 29.89 in 6 mi North 5.8 mph - -   Haze
7:00 PM 89.6 °F 89.5 °F 60.8 °F 38% 29.89 in 5.6 mi North 5.8 mph - N/A   Scattered Clouds
7:30 PM 87.8 °F 90.4 °F 66.2 °F 49% 29.89 in 5.6 mi North 4.6 mph - N/A   Scattered Clouds
8:00 PM 87.8 °F 91.4 °F 68.0 °F 52% 29.89 in 5.6 mi NNW 6.9 mph - N/A   Scattered Clouds
8:30 PM 87.8 °F 91.4 °F 68.0 °F 52% 29.92 in 5.0 mi NNW 4.6 mph - N/A   Scattered Clouds
9:00 PM 86.0 °F 89.4 °F 68.0 °F 55% 29.92 in 5.0 mi WNW 3.5 mph - N/A   Scattered Clouds
9:30 PM 86.0 °F 89.4 °F 68.0 °F 55% 29.95 in 4.3 mi WNW 5.8 mph - N/A   Scattered Clouds
10:00 PM 86.0 °F 90.4 °F 69.8 °F 58% 29.95 in 4.3 mi NNW 5.8 mph - N/A   Scattered Clouds
10:30 PM 84.2 °F 88.4 °F 69.8 °F 62% 29.95 in 3.7 mi NW 5.8 mph - N/A   Scattered Clouds
11:00 PM 84.2 °F 88.4 °F 69.8 °F 62% 29.95 in 3.7 mi North 4.6 mph - N/A   Scattered Clouds
11:30 PM 84.2 °F 88.4 °F 69.8 °F 62% 29.92 in 3.7 mi WNW 4.6 mph - N/A   Scattered Clouds